SCP
-0 -0 -0 -0 -0 -0 -0 -0 0 0 0 0 0 0 0 0 0 0 0 0 0 0 0 0 0 0 0 0 0 0 0 0 0 0 0 0 0 0 0 0 0 0 0 0
0 -0 -0 -0 -0 -0 0 -0 -0 0 -0 0 0 0 0 0 0 0 0 0 0 0 0 0 0 0 0 0 0 0 0 0 0 0 0 0 0 0 0 0 0 0 0 0
-0 0 -0 -0 -0 -0 0 -0 0 0 0 0 0 0 0 0 0 0 0 0 0 0 0 0 0 0 0 0 0 0 0 0 0 0 0 0 0 0 0 0 0 0 0 0
0 0 0 0 -0 -0 0 0 0 0 0 0 0 0 0 0 0 0 0 0 0 0 0 0 0 0 0 0 0 0 0 0 0 0 0 0 0 0 0 0 0 0 0 0
0 0 0 0 0 -0 0 0 0 0 0 0 0 0 0 0 0 0 0 0 0 0 0 0 0 0 0 0 0 0 0 0 0 0 0 0 0 0 0 0 -0 0 0 0
0 0 0 0 0 0 0 0 0 0 0 0 0 0 0 0 0 0 0 0 0 0 0 0 0 0 0 0 0 0 0 0 0 0 0 0 0 0 0 0 0 0 0 0
0 0 0 0 0 0 0 0 0 0 0 0 0 0 0 0 0 0 0 0 0 0 0 0 0 0 0 0 0 0 0 0 0 0 0 0 0 0 0 0 0 0 0 0
0 0 0 0 0 0 0 0 0 0 0 0 0 0 0 0 0 0 0 0 0 0 0 0 0 0 0 0 0 0 0 0 0 0 0 0 0 0 0 0 0 0 0 0
0 0 0 0 0 0 0 0 0 0 0 0 0 0 0 0 0 0 0 0 0 0 0 0 0 0 0 0 0 0 0 0 0 0 0 0 0 0 0 0 0 0 0 0
0 0 0 0 0 0 0 0 0 0 0 0 0 0 0 0 0 0 0 0 0 0 0 0 0 0 0 0 0 0 0 0 0 0 0 0 0 0 0 0 0 0 0 0
0 0 0 0 0 0 0 0 0 0 0 0 0 0 0 0 0 0 0 0 0 0 0 0 0 0 0 0 0 0 0 0 0 0 0 0 0 0 0 -0 0 0 -0 -0
0 0 0 0 0 0 0 0 0 0 0 0 0 0 0 0 0 0 0 0 0 0 0 0 0 0 0 0 0 0 0 0 0 0 0 0 0 0 -0 0 -0 -0 -0 -0
0 0 0 0 0 0 0 0 0 0 0 0 0 0 0 0 0 0 0 0 0 0 0 0 0 0 0 0 0 0 0 0 0 0 0 0 0 0 -0 -0 -0 -0 -0 -0
0 0 0 0 0 0 0 0 0 0 0 0 0 0 0 0 0 0 0 0 0 0 0 0 0 0 0 0 0 0 0 0 0 -0 0 0 0 0 0 0 -0 -0 -0 -0
0 0 0 0 0 0 0 0 0 0 0 0 0 0 0 0 0 0 0 0 0 0 0 0 0 0 0 0 0 0 0 0 0 0 0 0 -0 -0 0 -0 -0 -0 -0 -0
0 0 0 0 0 0 0 0 0 0 0 0 0 0 0 0 0 0 0 0 0 0 0 0 0 0 0 0 0 0 0 0 0 0 0 -0 -0 -0 0 -0 -0 -0 -0 -0
0 0 0 0 0 0 0 0 0 0 0 0 0 0 0 0 0 0 0 0 0 0 0 0 0 0 0 0 -0 0 0 0 0 0 0 -0 -0 -0 -0 -0 -0 -0 -0 -0
0 0 0 0 0 0 0 0 0 0 0 0 0 0 0 0 0 0 0 0 0 0 0 0 0 0 0 -0 -0 0 0 0 -0 -0 0 -0 0 -0 -0 -0 -0 -0 0 0
0 0 0 0 0 0 0 0 0 0 0 0 0 0 0 0 0 0 0 0 0 0 0 0 0 -0 -0 -0 0 -0 0 0 0 0 -0 0 0 -0 -0 -0 -0 -0 0 -0
-0 0 0 0 0 0 0 0 0 0 0 0 0 0 0 0 0 0 0 0 0 -0 0 0 -0 -0 -0 -0 0 0 0 0 0 0 0 0 -0 -0 -0 -0 -0 0 -0 0
0 0 0 0 0 0 0 0 0 0 0 0 0 0 0 0 0 0 0 0 0 -0 0 0 -0 -0 0 0 0 0 0 0 0 -0 -0 -0 -0 -0 -0 -0 -0 0 0 -0
0 0 0 0 0 0 0 0 0 0 0 0 0 0 0 -0 -0 0 0 0 -0 -0 -0 0 -0 0 0 0 0 0 -0 -0 -0 -0 -0 -0 -0 -0 0 0 -0 0 -0 -0
0 0 0 0 0 0 0 0 0 0 0 0 0 0 -0 0 0 0 0 -0 -0 -0 -0 0 -0 -0 0 0 -0 -0 -0 -0 -0 -0 -0 -0 0 0 0 0 0 -0 -0 -0
0 0 0 0 0 0 0 -0 0 0 0 0 0 0 0 -0 -0 -0 0 -0 -0 0 0 -0 0 0 -0 -0 -0 -0 -0 -0 -0 0 0 0 0 0 0 0 0 0 0 0
0 0 0 0 0 0 0 0 0 0 0 0 0 0 0 -0 -0 -0 0 0 0 0 0 -0 0 0 -0 -0 -0 -0 0 0 -0 -0 -0 0 0 0 0 0 0 0 0 0
0 0 0 0 0 0 0 0 -0 0 0 -0 0 0 0 -0 -0 0 0 -0 0 0 -0 0 0 -0 -0 -0 -0 -0 -0 0 -0 -0 -0 0 0 0 -0 -0 0 0 0 0
0 0 0 0 0 0 0 -0 -0 0 -0 -0 -0 -0 0 0 -0 -0 0 -0 -0 -0 -0 -0 -0 -0 -0 -0 -0 -0 -0 -0 0 -0 0 0 -0 0 0 -0 -0 -0 0 0
Wind_Speed_500mb
40 40 39 40 49 51 16 6 3 16 4 8 2 1 5 1 1 3 7 9 16 17 9 13 12 15 13 11 10 16 14 11 22 37 34 28 30 35 34 14 22 22 24 26
37 38 34 36 42 49 30 6 7 13 5 2 4 5 3 4 3 3 4 7 5 4 16 11 13 16 9 6 8 2 7 8 13 13 19 16 20 20 22 29 2 28 30 23
30 35 30 29 36 37 21 6 1 11 18 10 7 4 1 5 4 2 7 11 9 14 19 17 7 15 6 5 13 6 6 16 27 26 29 22 24 31 23 19 7 28 35 44
25 29 28 24 31 27 15 12 7 6 5 9 7 2 1 5 4 3 5 6 8 12 11 14 25 22 15 14 25 24 13 10 26 32 33 34 36 37 43 43 30 26 32 43
21 19 22 25 24 22 22 7 7 3 5 5 4 4 3 6 1 6 4 12 7 2 8 14 26 28 30 18 10 13 17 11 17 26 30 26 35 41 41 43 45 46 45 46
15 12 14 17 18 19 11 10 9 1 4 2 6 4 2 2 12 5 10 10 16 24 27 32 39 45 42 30 21 12 7 11 8 24 18 21 30 25 22 24 29 29 32 28
10 7 10 13 14 11 10 9 7 6 4 3 7 5 11 10 16 19 20 28 26 15 26 38 50 56 57 53 43 42 12 22 11 17 13 20 6 5 8 15 16 15 23 28
9 7 8 12 12 9 7 9 5 5 6 5 5 5 7 16 16 20 24 20 14 20 29 20 18 11 14 15 22 29 37 25 8 8 14 27 33 6 9 13 21 21 22 20
15 11 12 11 8 8 6 7 5 1 12 3 5 3 8 7 15 15 8 12 16 15 11 6 9 6 10 5 10 17 25 23 13 10 8 8 7 9 5 13 17 14 17 30
15 13 15 11 7 8 6 9 4 1 8 3 4 7 6 6 5 7 18 8 7 8 5 7 9 8 4 6 6 5 5 5 20 18 10 13 6 4 6 10 7 27 36 45
15 12 9 12 11 8 8 11 10 4 9 23 19 14 15 10 11 5 8 16 5 9 7 6 5 7 0 8 9 6 9 7 8 12 11 15 7 6 9 26 38 36 51 57
18 14 12 14 12 9 12 18 15 14 14 20 27 35 33 33 30 10 12 7 2 6 6 4 7 6 6 8 7 7 8 6 3 10 5 4 11 16 26 25 34 52 56 58
18 17 15 15 12 12 13 24 17 18 13 23 11 11 12 14 22 24 14 13 14 10 11 6 4 10 7 6 7 10 6 10 12 15 4 7 19 25 18 31 48 55 57 58
24 21 18 17 14 15 21 19 25 12 9 5 4 6 11 14 22 22 37 33 14 8 14 8 5 7 8 7 10 17 22 23 18 24 19 24 14 21 40 49 51 54 58 59
23 24 22 18 18 18 22 18 26 20 8 6 18 38 8 6 12 18 23 33 34 6 4 7 5 11 9 13 9 17 15 13 9 6 19 17 33 44 49 51 58 57 58 63
23 22 23 19 18 13 6 15 25 29 20 6 6 8 10 7 6 10 19 23 20 15 8 7 9 12 8 7 10 15 20 15 15 19 27 30 41 41 49 52 53 56 56 59
24 24 23 20 15 14 14 9 9 14 4 5 9 6 5 7 6 9 14 18 11 14 10 11 12 11 14 6 20 29 11 14 15 16 24 33 37 49 46 47 49 51 58 59
25 24 23 25 13 22 18 16 9 9 7 4 5 7 10 11 7 7 13 13 14 14 9 9 7 5 9 9 16 10 11 14 16 15 25 36 43 42 44 42 48 57 60 64
25 20 18 16 13 12 10 9 12 9 7 4 6 5 4 3 6 6 8 12 7 10 7 5 5 6 11 13 15 13 16 12 18 27 33 35 38 39 41 47 52 57 65 66
22 21 11 8 12 13 13 9 12 8 6 9 7 9 8 5 5 6 5 12 4 5 9 9 5 9 31 23 17 9 8 14 21 31 33 35 40 41 47 48 51 58 63 70
29 13 8 17 23 14 4 5 6 8 7 11 11 18 13 5 8 2 6 2 6 5 6 5 5 6 2 4 1 5 13 20 24 25 26 31 36 41 44 47 53 58 62 66
16 12 22 22 9 4 5 6 8 8 7 11 11 10 15 6 5 4 7 4 4 5 12 5 5 3 5 1 5 12 20 21 24 25 29 34 34 34 38 45 53 58 61 65
21 8 10 9 8 8 10 12 7 7 10 12 14 7 8 9 9 9 7 9 7 7 5 6 1 4 2 5 10 17 17 21 23 28 29 27 29 33 38 44 49 57 59 61
8 10 9 10 10 11 9 10 1 4 7 3 8 3 9 10 9 7 7 5 5 6 7 3 4 5 5 8 12 15 18 23 23 24 27 28 31 35 36 39 48 56 58 62
9 8 9 13 13 9 8 12 9 8 4 7 5 8 8 5 7 6 6 6 6 3 3 4 8 6 6 7 12 16 20 21 22 25 28 31 33 36 39 42 49 54 54 58
8 10 7 11 11 12 18 19 16 12 10 6 7 3 5 7 5 8 8 3 5 2 2 8 6 6 7 9 13 17 18 18 21 25 29 32 35 36 38 41 47 52 52 57
9 10 20 20 12 10 8 8 15 19 12 5 6 7 8 5 6 6 4 6 2 5 9 10 10 9 7 10 14 17 18 19 23 26 29 31 32 33 37 45 51 49 48 53
Wind_Direction_500mb
342 348 351 351 353 357 35 47 189 1 9 224 342 94 26 307 315 311 273 271 261 262 259 259 259 244 243 187 231 267 266 285 269 266 279 275 265 271 274 250 255 254 279 273
339 345 350 356 359 2 11 28 6 357 28 206 133 116 151 351 303 336 281 268 257 334 280 288 268 281 342 352 285 251 336 237 274 249 221 230 251 274 271 263 252 249 264 257
343 347 356 358 2 2 17 346 184 44 54 55 348 352 34 211 9 210 289 288 278 274 267 248 252 258 305 309 270 123 12 263 258 272 293 303 276 279 255 253 243 270 255 271
340 350 3 8 9 15 42 15 64 14 18 67 29 293 301 279 289 254 287 214 244 288 272 275 258 271 285 271 281 258 191 247 255 272 277 275 274 259 254 251 236 259 283 287
335 350 354 4 9 28 39 27 350 48 84 334 303 163 102 317 105 277 212 272 324 126 260 257 284 285 286 286 264 202 196 254 284 271 268 258 260 259 260 262 262 255 259 271
324 347 353 359 6 23 41 41 23 307 120 31 287 45 41 282 325 266 277 296 298 287 286 288 275 273 271 261 251 249 270 251 272 271 279 290 281 265 261 270 260 255 262 286
305 330 349 348 356 17 50 52 3 306 115 289 359 320 309 295 321 280 282 291 286 283 308 291 279 262 255 252 244 227 230 249 254 276 301 266 52 30 327 301 300 275 262 279
312 303 316 323 340 351 38 21 16 332 307 322 175 317 309 306 294 275 287 287 300 297 293 281 274 221 221 230 237 237 224 241 241 253 231 278 279 190 297 328 304 304 309 315
289 289 293 304 302 323 322 337 22 335 309 154 331 282 310 307 315 296 276 282 306 286 274 274 268 291 315 219 173 218 210 214 219 203 247 271 66 123 360 318 279 57 348 325
283 285 300 273 265 288 304 303 308 279 295 276 245 275 267 270 273 271 296 311 308 250 254 254 257 261 13 282 280 140 144 169 220 228 246 269 68 100 306 263 4 327 327 311
278 262 295 284 266 273 268 277 292 226 235 281 255 248 243 223 212 222 320 307 197 259 254 278 304 280 67 267 256 279 203 222 199 220 230 255 109 241 268 343 322 324 311 310
271 247 268 270 269 257 262 264 279 275 244 272 279 269 259 247 238 234 209 278 309 318 267 210 295 298 276 311 281 199 262 237 304 232 248 260 299 307 312 314 309 309 313 310
259 239 242 264 258 268 275 274 270 278 284 306 277 284 259 212 210 220 219 216 220 225 244 318 301 261 273 270 267 291 270 242 255 279 112 300 300 307 301 316 311 311 309 310
251 257 234 252 259 264 269 276 273 279 275 286 307 282 281 250 249 242 231 235 202 233 254 217 261 268 253 277 297 287 282 291 279 280 309 325 293 314 319 316 315 312 310 310
247 235 229 236 253 259 261 269 254 258 258 280 287 300 254 260 220 233 223 223 229 225 240 225 239 272 272 263 287 261 256 275 266 282 342 324 304 312 316 316 317 315 317 311
228 225 216 233 250 268 239 236 249 253 264 266 285 323 279 236 243 210 198 204 213 212 211 240 251 251 265 274 258 293 296 276 274 287 313 305 303 306 318 317 316 316 312 308
214 210 218 231 254 243 208 215 192 187 195 225 277 264 185 201 176 156 166 188 190 201 219 228 246 230 208 267 271 293 311 309 309 299 308 309 313 317 320 318 318 317 313 312
205 204 220 229 236 238 245 234 199 258 198 199 274 281 245 190 203 196 181 177 199 214 239 218 218 246 241 256 252 268 302 296 289 300 309 304 311 317 320 322 323 320 320 318
183 196 230 224 190 209 202 246 253 235 201 244 220 263 309 197 174 188 206 202 203 212 220 216 206 233 227 252 307 297 326 330 316 312 312 315 319 322 325 327 328 323 321 323
183 179 195 182 172 167 143 151 186 219 230 221 249 245 259 259 224 151 253 196 223 225 206 170 235 262 259 274 289 312 317 324 323 319 325 330 327 327 326 327 325 323 323 325
178 166 166 144 146 161 164 170 217 180 227 216 230 231 248 258 249 248 250 241 220 255 133 241 228 252 100 111 117 316 322 322 319 312 313 319 321 322 323 325 327 325 329 329
191 180 142 147 179 159 215 210 172 218 240 194 219 207 208 230 226 222 232 245 207 259 136 235 240 103 49 228 307 319 325 325 325 318 317 319 322 324 325 328 327 330 332 332
163 162 145 160 164 196 218 197 196 211 200 195 199 191 196 184 203 232 237 234 217 159 214 232 276 70 342 320 325 326 331 332 329 324 325 329 328 329 332 331 333 334 335 336
188 156 181 218 183 227 201 233 351 111 199 190 201 216 216 209 188 241 245 184 180 234 220 204 102 52 28 346 344 346 346 344 343 343 340 340 336 333 336 337 338 338 340 339
204 185 219 216 235 203 205 231 226 207 180 181 188 210 224 201 245 234 270 228 245 252 346 40 62 62 20 28 6 359 352 354 355 352 348 348 341 339 339 343 342 343 344 343
215 223 247 243 237 222 214 226 230 218 205 237 229 229 218 203 224 216 225 239 238 302 33 84 103 86 77 32 14 2 358 359 357 353 348 346 343 341 341 344 346 348 348 349
211 235 230 244 263 248 251 256 252 186 169 196 208 216 216 126 217 216 181 221 246 148 131 119 116 114 74 36 14 7 3 1 356 354 354 349 347 351 352 352 349 351 352 354
Wind_Speed_850mb
40 40 39 40 49 51 16 6 3 16 4 8 2 1 5 1 1 3 7 9 16 17 9 13 12 15 13 11 10 16 14 11 22 37 34 28 30 35 34 14 22 22 24 26
37 38 34 36 42 49 30 6 7 13 5 2 4 5 3 4 3 3 4 7 5 4 16 11 13 16 9 6 8 2 7 8 13 13 19 16 20 20 22 29 2 28 30 23
30 35 30 29 36 37 21 6 1 11 18 10 7 4 1 5 4 2 7 11 9 14 19 17 7 15 6 5 13 6 6 16 27 26 29 22 24 31 23 19 7 28 35 44
25 29 28 24 31 27 15 12 7 6 5 9 7 2 1 5 4 3 5 6 8 12 11 14 25 22 15 14 25 24 13 10 26 32 33 34 36 37 43 43 30 26 32 43
21 19 22 25 24 22 22 7 7 3 5 5 4 4 3 6 1 6 4 12 7 2 8 14 26 28 30 18 10 13 17 11 17 26 30 26 35 41 41 43 45 46 45 46
15 12 14 17 18 19 11 10 9 1 4 2 6 4 2 2 12 5 10 10 16 24 27 32 39 45 42 30 21 12 7 11 8 24 18 21 30 25 22 24 29 29 32 28
10 7 10 13 14 11 10 9 7 6 4 3 7 5 11 10 16 19 20 28 26 15 26 38 50 56 57 53 43 42 12 22 11 17 13 20 6 5 8 15 16 15 23 28
9 7 8 12 12 9 7 9 5 5 6 5 5 5 7 16 16 20 24 20 14 20 29 20 18 11 14 15 22 29 37 25 8 8 14 27 33 6 9 13 21 21 22 20
15 11 12 11 8 8 6 7 5 1 12 3 5 3 8 7 15 15 8 12 16 15 11 6 9 6 10 5 10 17 25 23 13 10 8 8 7 9 5 13 17 14 17 30
15 13 15 11 7 8 6 9 4 1 8 3 4 7 6 6 5 7 18 8 7 8 5 7 9 8 4 6 6 5 5 5 20 18 10 13 6 4 6 10 7 27 36 45
15 12 9 12 11 8 8 11 10 4 9 23 19 14 15 10 11 5 8 16 5 9 7 6 5 7 0 8 9 6 9 7 8 12 11 15 7 6 9 26 38 36 51 57
18 14 12 14 12 9 12 18 15 14 14 20 27 35 33 33 30 10 12 7 2 6 6 4 7 6 6 8 7 7 8 6 3 10 5 4 11 16 26 25 34 52 56 58
18 17 15 15 12 12 13 24 17 18 13 23 11 11 12 14 22 24 14 13 14 10 11 6 4 10 7 6 7 10 6 10 12 15 4 7 19 25 18 31 48 55 57 58
24 21 18 17 14 15 21 19 25 12 9 5 4 6 11 14 22 22 37 33 14 8 14 8 5 7 8 7 10 17 22 23 18 24 19 24 14 21 40 49 51 54 58 59
23 24 22 18 18 18 22 18 26 20 8 6 18 38 8 6 12 18 23 33 34 6 4 7 5 11 9 13 9 17 15 13 9 6 19 17 33 44 49 51 58 57 58 63
23 22 23 19 18 13 6 15 25 29 20 6 6 8 10 7 6 10 19 23 20 15 8 7 9 12 8 7 10 15 20 15 15 19 27 30 41 41 49 52 53 56 56 59
24 24 23 20 15 14 14 9 9 14 4 5 9 6 5 7 6 9 14 18 11 14 10 11 12 11 14 6 20 29 11 14 15 16 24 33 37 49 46 47 49 51 58 59
25 24 23 25 13 22 18 16 9 9 7 4 5 7 10 11 7 7 13 13 14 14 9 9 7 5 9 9 16 10 11 14 16 15 25 36 43 42 44 42 48 57 60 64
25 20 18 16 13 12 10 9 12 9 7 4 6 5 4 3 6 6 8 12 7 10 7 5 5 6 11 13 15 13 16 12 18 27 33 35 38 39 41 47 52 57 65 66
22 21 11 8 12 13 13 9 12 8 6 9 7 9 8 5 5 6 5 12 4 5 9 9 5 9 31 23 17 9 8 14 21 31 33 35 40 41 47 48 51 58 63 70
29 13 8 17 23 14 4 5 6 8 7 11 11 18 13 5 8 2 6 2 6 5 6 5 5 6 2 4 1 5 13 20 24 25 26 31 36 41 44 47 53 58 62 66
16 12 22 22 9 4 5 6 8 8 7 11 11 10 15 6 5 4 7 4 4 5 12 5 5 3 5 1 5 12 20 21 24 25 29 34 34 34 38 45 53 58 61 65
21 8 10 9 8 8 10 12 7 7 10 12 14 7 8 9 9 9 7 9 7 7 5 6 1 4 2 5 10 17 17 21 23 28 29 27 29 33 38 44 49 57 59 61
8 10 9 10 10 11 9 10 1 4 7 3 8 3 9 10 9 7 7 5 5 6 7 3 4 5 5 8 12 15 18 23 23 24 27 28 31 35 36 39 48 56 58 62
9 8 9 13 13 9 8 12 9 8 4 7 5 8 8 5 7 6 6 6 6 3 3 4 8 6 6 7 12 16 20 21 22 25 28 31 33 36 39 42 49 54 54 58
8 10 7 11 11 12 18 19 16 12 10 6 7 3 5 7 5 8 8 3 5 2 2 8 6 6 7 9 13 17 18 18 21 25 29 32 35 36 38 41 47 52 52 57
9 10 20 20 12 10 8 8 15 19 12 5 6 7 8 5 6 6 4 6 2 5 9 10 10 9 7 10 14 17 18 19 23 26 29 31 32 33 37 45 51 49 48 53
Wind_Direction_850mb
342 348 351 351 353 357 35 47 189 1 9 224 342 94 26 307 315 311 273 271 261 262 259 259 259 244 243 187 231 267 266 285 269 266 279 275 265 271 274 250 255 254 279 273
339 345 350 356 359 2 11 28 6 357 28 206 133 116 151 351 303 336 281 268 257 334 280 288 268 281 342 352 285 251 336 237 274 249 221 230 251 274 271 263 252 249 264 257
343 347 356 358 2 2 17 346 184 44 54 55 348 352 34 211 9 210 289 288 278 274 267 248 252 258 305 309 270 123 12 263 258 272 293 303 276 279 255 253 243 270 255 271
340 350 3 8 9 15 42 15 64 14 18 67 29 293 301 279 289 254 287 214 244 288 272 275 258 271 285 271 281 258 191 247 255 272 277 275 274 259 254 251 236 259 283 287
335 350 354 4 9 28 39 27 350 48 84 334 303 163 102 317 105 277 212 272 324 126 260 257 284 285 286 286 264 202 196 254 284 271 268 258 260 259 260 262 262 255 259 271
324 347 353 359 6 23 41 41 23 307 120 31 287 45 41 282 325 266 277 296 298 287 286 288 275 273 271 261 251 249 270 251 272 271 279 290 281 265 261 270 260 255 262 286
305 330 349 348 356 17 50 52 3 306 115 289 359 320 309 295 321 280 282 291 286 283 308 291 279 262 255 252 244 227 230 249 254 276 301 266 52 30 327 301 300 275 262 279
312 303 316 323 340 351 38 21 16 332 307 322 175 317 309 306 294 275 287 287 300 297 293 281 274 221 221 230 237 237 224 241 241 253 231 278 279 190 297 328 304 304 309 315
289 289 293 304 302 323 322 337 22 335 309 154 331 282 310 307 315 296 276 282 306 286 274 274 268 291 315 219 173 218 210 214 219 203 247 271 66 123 360 318 279 57 348 325
283 285 300 273 265 288 304 303 308 279 295 276 245 275 267 270 273 271 296 311 308 250 254 254 257 261 13 282 280 140 144 169 220 228 246 269 68 100 306 263 4 327 327 311
278 262 295 284 266 273 268 277 292 226 235 281 255 248 243 223 212 222 320 307 197 259 254 278 304 280 67 267 256 279 203 222 199 220 230 255 109 241 268 343 322 324 311 310
271 247 268 270 269 257 262 264 279 275 244 272 279 269 259 247 238 234 209 278 309 318 267 210 295 298 276 311 281 199 262 237 304 232 248 260 299 307 312 314 309 309 313 310
259 239 242 264 258 268 275 274 270 278 284 306 277 284 259 212 210 220 219 216 220 225 244 318 301 261 273 270 267 291 270 242 255 279 112 300 300 307 301 316 311 311 309 310
251 257 234 252 259 264 269 276 273 279 275 286 307 282 281 250 249 242 231 235 202 233 254 217 261 268 253 277 297 287 282 291 279 280 309 325 293 314 319 316 315 312 310 310
247 235 229 236 253 259 261 269 254 258 258 280 287 300 254 260 220 233 223 223 229 225 240 225 239 272 272 263 287 261 256 275 266 282 342 324 304 312 316 316 317 315 317 311
228 225 216 233 250 268 239 236 249 253 264 266 285 323 279 236 243 210 198 204 213 212 211 240 251 251 265 274 258 293 296 276 274 287 313 305 303 306 318 317 316 316 312 308
214 210 218 231 254 243 208 215 192 187 195 225 277 264 185 201 176 156 166 188 190 201 219 228 246 230 208 267 271 293 311 309 309 299 308 309 313 317 320 318 318 317 313 312
205 204 220 229 236 238 245 234 199 258 198 199 274 281 245 190 203 196 181 177 199 214 239 218 218 246 241 256 252 268 302 296 289 300 309 304 311 317 320 322 323 320 320 318
183 196 230 224 190 209 202 246 253 235 201 244 220 263 309 197 174 188 206 202 203 212 220 216 206 233 227 252 307 297 326 330 316 312 312 315 319 322 325 327 328 323 321 323
183 179 195 182 172 167 143 151 186 219 230 221 249 245 259 259 224 151 253 196 223 225 206 170 235 262 259 274 289 312 317 324 323 319 325 330 327 327 326 327 325 323 323 325
178 166 166 144 146 161 164 170 217 180 227 216 230 231 248 258 249 248 250 241 220 255 133 241 228 252 100 111 117 316 322 322 319 312 313 319 321 322 323 325 327 325 329 329
191 180 142 147 179 159 215 210 172 218 240 194 219 207 208 230 226 222 232 245 207 259 136 235 240 103 49 228 307 319 325 325 325 318 317 319 322 324 325 328 327 330 332 332
163 162 145 160 164 196 218 197 196 211 200 195 199 191 196 184 203 232 237 234 217 159 214 232 276 70 342 320 325 326 331 332 329 324 325 329 328 329 332 331 333 334 335 336
188 156 181 218 183 227 201 233 351 111 199 190 201 216 216 209 188 241 245 184 180 234 220 204 102 52 28 346 344 346 346 344 343 343 340 340 336 333 336 337 338 338 340 339
204 185 219 216 235 203 205 231 226 207 180 181 188 210 224 201 245 234 270 228 245 252 346 40 62 62 20 28 6 359 352 354 355 352 348 348 341 339 339 343 342 343 344 343
215 223 247 243 237 222 214 226 230 218 205 237 229 229 218 203 224 216 225 239 238 302 33 84 103 86 77 32 14 2 358 359 357 353 348 346 343 341 341 344 346 348 348 349
211 235 230 244 263 248 251 256 252 186 169 196 208 216 216 126 217 216 181 221 246 148 131 119 116 114 74 36 14 7 3 1 356 354 354 349 347 351 352 352 349 351 352 354